Year,Month,Day,Hour,Minute,Value (Times are PST for temperature in C)
2006,07,23,00,00,22.80
2006,07,23,00,01,22.90
2006,07,23,00,02,22.90
2006,07,23,00,03,22.80
2006,07,23,00,04,22.80
2006,07,23,00,05,22.80
2006,07,23,00,06,22.70
2006,07,23,00,07,22.70
2006,07,23,00,08,22.70
2006,07,23,00,09,22.60
2006,07,23,00,10,22.60
2006,07,23,00,11,22.60
2006,07,23,00,12,22.60
2006,07,23,00,13,22.50
2006,07,23,00,14,22.40
2006,07,23,00,15,22.40
2006,07,23,00,16,22.30
2006,07,23,00,17,22.30
2006,07,23,00,18,22.30
2006,07,23,00,19,22.30
2006,07,23,00,20,22.30
2006,07,23,00,21,22.30
2006,07,23,00,22,22.30
2006,07,23,00,23,22.30
2006,07,23,00,24,22.30
2006,07,23,00,25,22.30
2006,07,23,00,26,22.30
2006,07,23,00,27,22.30
2006,07,23,00,28,22.30
2006,07,23,00,29,22.30
2006,07,23,00,30,22.30
2006,07,23,00,31,22.30
2006,07,23,00,32,22.30
2006,07,23,00,33,22.40
2006,07,23,00,34,22.40
2006,07,23,00,35,22.30
2006,07,23,00,36,22.30
2006,07,23,00,37,22.30
2006,07,23,00,38,22.30
2006,07,23,00,39,22.20
2006,07,23,00,40,22.20
2006,07,23,00,41,22.20
2006,07,23,00,42,22.20
2006,07,23,00,43,22.20
2006,07,23,00,44,22.20
2006,07,23,00,45,22.20
2006,07,23,00,46,22.20
2006,07,23,00,47,22.30
2006,07,23,00,48,22.30
2006,07,23,00,49,22.30
2006,07,23,00,50,22.30
2006,07,23,00,51,22.40
2006,07,23,00,52,22.40
2006,07,23,00,53,22.40
2006,07,23,00,54,22.40
2006,07,23,00,55,22.40
2006,07,23,00,56,22.40
2006,07,23,00,57,22.40
2006,07,23,00,58,22.40
2006,07,23,00,59,22.40
2006,07,23,01,00,22.40
2006,07,23,01,01,22.40
2006,07,23,01,02,22.30
2006,07,23,01,03,22.30
2006,07,23,01,04,22.30
2006,07,23,01,05,22.40
2006,07,23,01,06,22.40
2006,07,23,01,07,22.40
2006,07,23,01,08,22.40
2006,07,23,01,09,22.40
2006,07,23,01,10,22.40
2006,07,23,01,11,22.40
2006,07,23,01,12,22.30
2006,07,23,01,13,22.30
2006,07,23,01,14,22.30
2006,07,23,01,15,22.30
2006,07,23,01,16,22.30
2006,07,23,01,17,22.30
2006,07,23,01,18,22.20
2006,07,23,01,19,22.20
2006,07,23,01,20,22.20
2006,07,23,01,21,22.20
2006,07,23,01,22,22.20
2006,07,23,01,23,22.20
2006,07,23,01,24,22.20
2006,07,23,01,25,22.20
2006,07,23,01,26,22.20
2006,07,23,01,27,22.30
2006,07,23,01,28,22.30
2006,07,23,01,29,22.20
2006,07,23,01,30,22.20
2006,07,23,01,31,22.20
2006,07,23,01,32,22.20
2006,07,23,01,33,22.20
2006,07,23,01,34,22.20
2006,07,23,01,35,22.20
2006,07,23,01,36,22.10
2006,07,23,01,37,22.10
2006,07,23,01,38,22.10
2006,07,23,01,39,22.10
2006,07,23,01,40,22.00
2006,07,23,01,41,22.00
2006,07,23,01,42,22.00
2006,07,23,01,43,22.00
2006,07,23,01,44,21.90
2006,07,23,01,45,21.90
2006,07,23,01,46,21.90
2006,07,23,01,47,21.80
2006,07,23,01,48,21.80
2006,07,23,01,49,21.80
2006,07,23,01,50,21.80
2006,07,23,01,51,21.80
2006,07,23,01,52,21.80
2006,07,23,01,53,21.80
2006,07,23,01,54,21.80
2006,07,23,01,55,21.80
2006,07,23,01,56,21.80
2006,07,23,01,57,21.70
2006,07,23,01,58,21.70
2006,07,23,01,59,21.70
2006,07,23,02,00,21.70
2006,07,23,02,01,21.70
2006,07,23,02,02,21.60
2006,07,23,02,03,21.60
2006,07,23,02,04,21.60
2006,07,23,02,05,21.60
2006,07,23,02,06,21.60
2006,07,23,02,07,21.60
2006,07,23,02,08,21.60
2006,07,23,02,09,21.50
2006,07,23,02,10,21.40
2006,07,23,02,11,21.50
2006,07,23,02,12,21.60
2006,07,23,02,13,21.60
2006,07,23,02,14,21.40
2006,07,23,02,15,21.40
2006,07,23,02,16,21.40
2006,07,23,02,17,21.40
2006,07,23,02,18,21.30
2006,07,23,02,19,21.30
2006,07,23,02,20,21.30
2006,07,23,02,21,21.30
2006,07,23,02,22,21.30
2006,07,23,02,23,21.30
2006,07,23,02,24,21.30
2006,07,23,02,25,21.30
2006,07,23,02,26,21.30
2006,07,23,02,27,21.30
2006,07,23,02,28,21.30
2006,07,23,02,29,21.30
2006,07,23,02,30,21.20
2006,07,23,02,31,21.20
2006,07,23,02,32,21.20
2006,07,23,02,33,21.20
2006,07,23,02,34,21.20
2006,07,23,02,35,21.20
2006,07,23,02,36,21.20
2006,07,23,02,37,21.20
2006,07,23,02,38,21.20
2006,07,23,02,39,21.20
2006,07,23,02,40,21.10
2006,07,23,02,41,21.10
2006,07,23,02,42,21.10
2006,07,23,02,43,21.10
2006,07,23,02,44,21.10
2006,07,23,02,45,21.10
2006,07,23,02,46,21.10
2006,07,23,02,47,21.00
2006,07,23,02,48,21.00
2006,07,23,02,49,21.00
2006,07,23,02,50,21.00
2006,07,23,02,51,21.00
2006,07,23,02,52,20.90
2006,07,23,02,53,20.90
2006,07,23,02,54,21.00
2006,07,23,02,55,21.00
2006,07,23,02,56,21.00
2006,07,23,02,57,21.00
2006,07,23,02,58,21.00
2006,07,23,02,59,21.10
2006,07,23,03,00,21.10
2006,07,23,03,01,21.10
2006,07,23,03,02,21.10
2006,07,23,03,03,21.10
2006,07,23,03,04,21.10
2006,07,23,03,05,21.10
2006,07,23,03,06,21.10
2006,07,23,03,07,21.10
2006,07,23,03,08,21.10
2006,07,23,03,09,21.00
2006,07,23,03,10,21.00
2006,07,23,03,11,21.00
2006,07,23,03,12,21.00
2006,07,23,03,13,21.10
2006,07,23,03,14,21.10
2006,07,23,03,15,21.10
2006,07,23,03,16,21.10
2006,07,23,03,17,21.10
2006,07,23,03,18,21.00
2006,07,23,03,19,21.00
2006,07,23,03,20,21.00
2006,07,23,03,21,20.90
2006,07,23,03,22,20.90
2006,07,23,03,23,20.90
2006,07,23,03,24,20.90
2006,07,23,03,25,20.90
2006,07,23,03,26,20.90
2006,07,23,03,27,20.90
2006,07,23,03,28,20.90
2006,07,23,03,29,21.00
2006,07,23,03,30,21.00
2006,07,23,03,31,21.00
2006,07,23,03,32,20.90
2006,07,23,03,33,21.00
2006,07,23,03,34,20.90
2006,07,23,03,35,20.90
2006,07,23,03,36,20.90
2006,07,23,03,37,20.90
2006,07,23,03,38,20.90
2006,07,23,03,39,20.90
2006,07,23,03,40,20.90
2006,07,23,03,41,20.90
2006,07,23,03,42,20.90
2006,07,23,03,43,20.90
2006,07,23,03,44,20.90
2006,07,23,03,45,20.90
2006,07,23,03,46,20.90
2006,07,23,03,47,20.90
2006,07,23,03,48,20.90
2006,07,23,03,49,20.90
2006,07,23,03,50,20.80
2006,07,23,03,51,20.80
2006,07,23,03,52,20.80
2006,07,23,03,53,20.80
2006,07,23,03,54,20.90
2006,07,23,03,55,20.90
2006,07,23,03,56,21.00
2006,07,23,03,57,21.00
2006,07,23,03,58,21.00
2006,07,23,03,59,21.10
2006,07,23,04,00,21.10
2006,07,23,04,01,21.10
2006,07,23,04,02,21.10
2006,07,23,04,03,21.10
2006,07,23,04,04,21.20
2006,07,23,04,05,21.20
2006,07,23,04,06,21.20
2006,07,23,04,07,21.20
2006,07,23,04,08,21.20
2006,07,23,04,09,21.20
2006,07,23,04,10,21.20
2006,07,23,04,11,21.10
2006,07,23,04,12,21.10
2006,07,23,04,13,21.10
2006,07,23,04,14,21.10
2006,07,23,04,15,21.00
2006,07,23,04,16,21.00
2006,07,23,04,17,21.00
2006,07,23,04,18,20.90
2006,07,23,04,19,20.90
2006,07,23,04,20,20.90
2006,07,23,04,21,20.90
2006,07,23,04,22,20.90
2006,07,23,04,23,20.90
2006,07,23,04,24,20.90
2006,07,23,04,25,20.90
2006,07,23,04,26,20.90
2006,07,23,04,27,20.90
2006,07,23,04,28,20.90
2006,07,23,04,29,20.80
2006,07,23,04,30,20.80
2006,07,23,04,31,20.80
2006,07,23,04,32,20.70
2006,07,23,04,33,20.70
2006,07,23,04,34,20.70
2006,07,23,04,35,20.60
2006,07,23,04,36,20.60
2006,07,23,04,37,20.60
2006,07,23,04,38,20.50
2006,07,23,04,39,20.50
2006,07,23,04,40,20.40
2006,07,23,04,41,20.40
2006,07,23,04,42,20.40
2006,07,23,04,43,20.30
2006,07,23,04,44,20.30
2006,07,23,04,45,20.30
2006,07,23,04,46,20.20
2006,07,23,04,47,20.20
2006,07,23,04,48,20.20
2006,07,23,04,49,20.20
2006,07,23,04,50,20.20
2006,07,23,04,51,20.20
2006,07,23,04,52,20.20
2006,07,23,04,53,20.20
2006,07,23,04,54,20.20
2006,07,23,04,55,20.10
2006,07,23,04,56,20.10
2006,07,23,04,57,20.10
2006,07,23,04,58,20.00
2006,07,23,04,59,19.90
2006,07,23,05,00,19.90
2006,07,23,05,01,19.90
2006,07,23,05,02,19.90
2006,07,23,05,03,19.90
2006,07,23,05,04,19.90
2006,07,23,05,05,19.90
2006,07,23,05,06,19.80
2006,07,23,05,07,19.80
2006,07,23,05,08,19.80
2006,07,23,05,09,19.80
2006,07,23,05,10,19.80
2006,07,23,05,11,19.80
2006,07,23,05,12,19.80
2006,07,23,05,13,19.80
2006,07,23,05,14,19.80
2006,07,23,05,15,19.70
2006,07,23,05,16,19.70
2006,07,23,05,17,19.70
2006,07,23,05,18,19.60
2006,07,23,05,19,19.60
2006,07,23,05,20,19.50
2006,07,23,05,21,19.50
2006,07,23,05,22,19.50
2006,07,23,05,23,19.50
2006,07,23,05,24,19.40
2006,07,23,05,25,19.40
2006,07,23,05,26,19.40
2006,07,23,05,27,19.40
2006,07,23,05,28,19.40
2006,07,23,05,29,19.40
2006,07,23,05,30,19.30
2006,07,23,05,31,19.40
2006,07,23,05,32,19.40
2006,07,23,05,33,19.40
2006,07,23,05,34,19.40
2006,07,23,05,35,19.40
2006,07,23,05,36,19.30
2006,07,23,05,37,19.30
2006,07,23,05,38,19.30
2006,07,23,05,39,19.20
2006,07,23,05,40,19.20
2006,07,23,05,41,19.20
2006,07,23,05,42,19.20
2006,07,23,05,43,19.10
2006,07,23,05,44,19.10
2006,07,23,05,45,19.10
2006,07,23,05,46,19.10
2006,07,23,05,47,19.10
2006,07,23,05,48,19.10
2006,07,23,05,49,19.10
2006,07,23,05,50,19.10
2006,07,23,05,51,19.10
2006,07,23,05,52,19.20
2006,07,23,05,53,19.20
2006,07,23,05,54,19.30
2006,07,23,05,55,19.40
2006,07,23,05,56,19.40
2006,07,23,05,57,19.50
2006,07,23,05,58,19.50
2006,07,23,05,59,19.50
2006,07,23,06,00,19.60
2006,07,23,06,01,19.60
2006,07,23,06,02,19.60
2006,07,23,06,03,19.60
2006,07,23,06,04,19.60
2006,07,23,06,05,19.70
2006,07,23,06,06,19.70
2006,07,23,06,07,19.80
2006,07,23,06,08,19.80
2006,07,23,06,09,19.80
2006,07,23,06,10,19.70
2006,07,23,06,11,19.70
2006,07,23,06,12,19.70
2006,07,23,06,13,19.70
2006,07,23,06,14,19.70
2006,07,23,06,15,19.70
2006,07,23,06,16,19.70
2006,07,23,06,17,19.70
2006,07,23,06,18,19.70
2006,07,23,06,19,19.70
2006,07,23,06,20,19.70
2006,07,23,06,21,19.70
2006,07,23,06,22,19.70
2006,07,23,06,23,19.70
2006,07,23,06,24,19.70
2006,07,23,06,25,19.80
2006,07,23,06,26,19.80
2006,07,23,06,27,19.80
2006,07,23,06,28,19.80
2006,07,23,06,29,19.90
2006,07,23,06,30,19.90
2006,07,23,06,31,20.00
2006,07,23,06,32,20.10
2006,07,23,06,33,20.10
2006,07,23,06,34,20.10
2006,07,23,06,35,20.10
2006,07,23,06,36,20.20
2006,07,23,06,37,20.20
2006,07,23,06,38,20.20
2006,07,23,06,39,20.20
2006,07,23,06,40,20.20
2006,07,23,06,41,20.20
2006,07,23,06,42,20.30
2006,07,23,06,43,20.30
2006,07,23,06,44,20.30
2006,07,23,06,45,20.40
2006,07,23,06,46,20.40
2006,07,23,06,47,20.40
2006,07,23,06,48,20.40
2006,07,23,06,49,20.50
2006,07,23,06,50,20.50
2006,07,23,06,51,20.50
2006,07,23,06,52,20.50
2006,07,23,06,53,20.50
2006,07,23,06,54,20.50
2006,07,23,06,55,20.50
2006,07,23,06,56,20.50
2006,07,23,06,57,20.50
2006,07,23,06,58,20.50
2006,07,23,06,59,20.60
2006,07,23,07,00,20.60
2006,07,23,07,01,20.60
2006,07,23,07,02,20.60
2006,07,23,07,03,20.60
2006,07,23,07,04,20.70
2006,07,23,07,05,20.70
2006,07,23,07,06,20.70
2006,07,23,07,07,20.80
2006,07,23,07,08,20.80
2006,07,23,07,09,20.80
2006,07,23,07,10,20.90
2006,07,23,07,11,20.90
2006,07,23,07,12,20.90
2006,07,23,07,13,21.00
2006,07,23,07,14,21.00
2006,07,23,07,15,21.00
2006,07,23,07,16,21.00
2006,07,23,07,17,21.10
2006,07,23,07,18,21.10
2006,07,23,07,19,21.10
2006,07,23,07,20,21.10
2006,07,23,07,21,21.10
2006,07,23,07,22,21.20
2006,07,23,07,23,21.20
2006,07,23,07,24,21.20
2006,07,23,07,25,21.20
2006,07,23,07,26,21.20
2006,07,23,07,27,21.30
2006,07,23,07,28,21.30
2006,07,23,07,29,21.30
2006,07,23,07,30,21.30
2006,07,23,07,31,21.30
2006,07,23,07,32,21.30
2006,07,23,07,33,21.40
2006,07,23,07,34,21.40
2006,07,23,07,35,21.50
2006,07,23,07,36,21.60
2006,07,23,07,37,21.60
2006,07,23,07,38,21.60
2006,07,23,07,39,21.70
2006,07,23,07,40,21.70
2006,07,23,07,41,21.80
2006,07,23,07,42,21.80
2006,07,23,07,43,21.90
2006,07,23,07,44,21.90
2006,07,23,07,45,22.00
2006,07,23,07,46,22.00
2006,07,23,07,47,22.10
2006,07,23,07,48,22.10
2006,07,23,07,49,22.10
2006,07,23,07,50,22.20
2006,07,23,07,51,22.20
2006,07,23,07,52,22.30
2006,07,23,07,53,22.30
2006,07,23,07,54,22.30
2006,07,23,07,55,22.30
2006,07,23,07,56,22.40
2006,07,23,07,57,22.40
2006,07,23,07,58,22.50
2006,07,23,07,59,22.50
2006,07,23,08,00,22.60
2006,07,23,08,01,22.60
2006,07,23,08,02,22.60
2006,07,23,08,03,22.70
2006,07,23,08,04,22.70
2006,07,23,08,05,22.70
2006,07,23,08,06,22.60
2006,07,23,08,07,22.60
2006,07,23,08,08,22.60
2006,07,23,08,09,22.60
2006,07,23,08,10,22.60
2006,07,23,08,11,22.60
2006,07,23,08,12,22.60
2006,07,23,08,13,22.60
2006,07,23,08,14,22.60
2006,07,23,08,15,22.60
2006,07,23,08,16,22.70
2006,07,23,08,17,22.70
2006,07,23,08,18,22.80
2006,07,23,08,19,22.80
2006,07,23,08,20,22.90
2006,07,23,08,21,22.90
2006,07,23,08,22,22.90
2006,07,23,08,23,22.90
2006,07,23,08,24,23.00
2006,07,23,08,25,23.10
2006,07,23,08,26,23.20
2006,07,23,08,27,23.20
2006,07,23,08,28,23.30
2006,07,23,08,29,23.40
2006,07,23,08,30,23.50
2006,07,23,08,31,23.60
2006,07,23,08,32,23.70
2006,07,23,08,33,23.70
2006,07,23,08,34,23.90
2006,07,23,08,35,24.00
2006,07,23,08,36,24.10
2006,07,23,08,37,24.30
2006,07,23,08,38,24.30
2006,07,23,08,39,24.40
2006,07,23,08,40,24.40
2006,07,23,08,41,24.40
2006,07,23,08,42,24.40
2006,07,23,08,43,24.50
2006,07,23,08,44,24.50
2006,07,23,08,45,24.50
2006,07,23,08,46,24.60
2006,07,23,08,47,24.60
2006,07,23,08,48,24.60
2006,07,23,08,49,24.70
2006,07,23,08,50,24.70
2006,07,23,08,51,24.80
2006,07,23,08,52,24.90
2006,07,23,08,53,25.00
2006,07,23,08,54,25.10
2006,07,23,08,55,25.20
2006,07,23,08,56,25.40
2006,07,23,08,57,25.50
2006,07,23,08,58,25.60
2006,07,23,08,59,25.60
2006,07,23,09,00,25.60
2006,07,23,09,01,25.70
2006,07,23,09,02,25.70
2006,07,23,09,03,25.80
2006,07,23,09,04,25.80
2006,07,23,09,05,25.90
2006,07,23,09,06,25.90
2006,07,23,09,07,26.00
2006,07,23,09,08,26.00
2006,07,23,09,09,26.00
2006,07,23,09,10,26.10
2006,07,23,09,11,26.10
2006,07,23,09,12,26.10
2006,07,23,09,13,25.90
2006,07,23,09,14,25.70
2006,07,23,09,15,25.40
2006,07,23,09,16,25.00
2006,07,23,09,17,24.60
2006,07,23,09,18,24.20
2006,07,23,09,19,23.90
2006,07,23,09,20,23.60
2006,07,23,09,21,23.40
2006,07,23,09,22,23.30
2006,07,23,09,23,23.20
2006,07,23,09,24,23.10
2006,07,23,09,25,23.00
2006,07,23,09,26,22.80
2006,07,23,09,27,22.70
2006,07,23,09,28,22.60
2006,07,23,09,29,22.50
2006,07,23,09,30,22.50
2006,07,23,09,31,22.40
2006,07,23,09,32,22.40
2006,07,23,09,33,22.30
2006,07,23,09,34,22.30
2006,07,23,09,35,22.20
2006,07,23,09,36,22.10
2006,07,23,09,37,22.00
2006,07,23,09,38,21.90
2006,07,23,09,39,21.80
2006,07,23,09,40,21.80
2006,07,23,09,41,21.70
2006,07,23,09,42,21.70
2006,07,23,09,43,21.80
2006,07,23,09,44,21.80
2006,07,23,09,45,21.80
2006,07,23,09,46,21.80
2006,07,23,09,47,21.80
2006,07,23,09,48,21.80
2006,07,23,09,49,21.80
2006,07,23,09,50,21.80
2006,07,23,09,51,21.80
2006,07,23,09,52,21.80
2006,07,23,09,53,21.80
2006,07,23,09,54,21.90
2006,07,23,09,55,22.00
2006,07,23,09,56,22.00
2006,07,23,09,57,22.00
2006,07,23,09,58,22.00
2006,07,23,09,59,22.10
2006,07,23,10,00,22.10
2006,07,23,10,01,22.20
2006,07,23,10,02,22.20
2006,07,23,10,03,22.30
2006,07,23,10,04,22.40
2006,07,23,10,05,22.50
2006,07,23,10,06,22.60
2006,07,23,10,07,22.60
2006,07,23,10,08,22.60
2006,07,23,10,09,22.60
2006,07,23,10,10,22.80
2006,07,23,10,11,22.90
2006,07,23,10,12,23.00
2006,07,23,10,13,23.10
2006,07,23,10,14,23.20
2006,07,23,10,15,23.30
2006,07,23,10,16,23.30
2006,07,23,10,17,23.50
2006,07,23,10,18,23.60
2006,07,23,10,19,23.70
2006,07,23,10,20,24.00
2006,07,23,10,21,24.20
2006,07,23,10,22,24.40
2006,07,23,10,23,24.60
2006,07,23,10,24,24.90
2006,07,23,10,25,25.20
2006,07,23,10,26,25.40
2006,07,23,10,27,25.70
2006,07,23,10,28,25.90
2006,07,23,10,29,26.10
2006,07,23,10,30,26.30
2006,07,23,10,31,26.50
2006,07,23,10,32,26.70
2006,07,23,10,33,26.80
2006,07,23,10,34,26.90
2006,07,23,10,35,27.00
2006,07,23,10,36,27.10
2006,07,23,10,37,27.10
2006,07,23,10,38,27.10
2006,07,23,10,39,27.10
2006,07,23,10,40,27.20
2006,07,23,10,41,27.20
2006,07,23,10,42,27.30
2006,07,23,10,43,27.30
2006,07,23,10,44,27.30
2006,07,23,10,45,27.20
2006,07,23,10,46,27.20
2006,07,23,10,47,27.30
2006,07,23,10,48,27.30
2006,07,23,10,49,27.40
2006,07,23,10,50,27.50
2006,07,23,10,51,27.60
2006,07,23,10,52,27.70
2006,07,23,10,53,27.80
2006,07,23,10,54,27.80
2006,07,23,10,55,27.80
2006,07,23,10,56,27.90
2006,07,23,10,57,27.90
2006,07,23,10,58,27.90
2006,07,23,10,59,27.90
2006,07,23,11,00,27.90
2006,07,23,11,01,27.90
2006,07,23,11,02,27.70
2006,07,23,11,03,27.80
2006,07,23,11,04,27.90
2006,07,23,11,05,28.00
2006,07,23,11,06,28.10
2006,07,23,11,07,28.20
2006,07,23,11,08,28.40
2006,07,23,11,09,28.50
2006,07,23,11,10,28.60
2006,07,23,11,11,28.60
2006,07,23,11,12,28.60
2006,07,23,11,13,28.50
2006,07,23,11,14,28.40
2006,07,23,11,15,28.40
2006,07,23,11,16,28.40
2006,07,23,11,17,28.40
2006,07,23,11,18,28.60
2006,07,23,11,19,28.60
2006,07,23,11,20,28.60
2006,07,23,11,21,28.60
2006,07,23,11,22,28.70
2006,07,23,11,23,28.70
2006,07,23,11,24,28.70
2006,07,23,11,25,28.70
2006,07,23,11,26,28.60
2006,07,23,11,27,28.60
2006,07,23,11,28,28.60
2006,07,23,11,29,28.60
2006,07,23,11,30,28.80
2006,07,23,11,31,28.90
2006,07,23,11,32,28.90
2006,07,23,11,33,28.90
2006,07,23,11,34,28.90
2006,07,23,11,35,29.00
2006,07,23,11,36,29.10
2006,07,23,11,37,29.10
2006,07,23,11,38,29.10
2006,07,23,11,39,29.10
2006,07,23,11,40,29.10
2006,07,23,11,41,28.80
2006,07,23,11,42,28.30
2006,07,23,11,43,27.90
2006,07,23,11,44,27.40
2006,07,23,11,45,27.10
2006,07,23,11,46,26.80
2006,07,23,11,47,26.60
2006,07,23,11,48,26.50
2006,07,23,11,49,26.40
2006,07,23,11,50,26.30
2006,07,23,11,51,26.40
2006,07,23,11,52,26.40
2006,07,23,11,53,26.50
2006,07,23,11,54,26.60
2006,07,23,11,55,26.50
2006,07,23,11,56,26.40
2006,07,23,11,57,26.30
2006,07,23,11,58,26.30
2006,07,23,11,59,26.20
2006,07,23,12,00,26.10
2006,07,23,12,01,26.00
2006,07,23,12,02,26.00
2006,07,23,12,03,25.90
2006,07,23,12,04,25.80
2006,07,23,12,05,25.80
2006,07,23,12,06,25.80
2006,07,23,12,07,25.80
2006,07,23,12,08,25.80
2006,07,23,12,09,25.80
2006,07,23,12,10,25.90
2006,07,23,12,11,25.90
2006,07,23,12,12,25.90
2006,07,23,12,13,25.90
2006,07,23,12,14,26.00
2006,07,23,12,15,25.90
2006,07,23,12,16,25.90
2006,07,23,12,17,25.80
2006,07,23,12,18,25.80
2006,07,23,12,19,25.80
2006,07,23,12,20,25.80
2006,07,23,12,21,25.90
2006,07,23,12,22,25.90
2006,07,23,12,23,25.90
2006,07,23,12,24,25.90
2006,07,23,12,25,25.90
2006,07,23,12,26,25.90
2006,07,23,12,27,25.90
2006,07,23,12,28,25.90
2006,07,23,12,29,25.90
2006,07,23,12,30,26.00
2006,07,23,12,31,26.00
2006,07,23,12,32,26.10
2006,07,23,12,33,26.10
2006,07,23,12,34,26.10
2006,07,23,12,35,26.10
2006,07,23,12,36,26.10
2006,07,23,12,37,26.10
2006,07,23,12,38,26.10
2006,07,23,12,39,26.20
2006,07,23,12,40,26.40
2006,07,23,12,41,26.50
2006,07,23,12,42,26.60
2006,07,23,12,43,26.60
2006,07,23,12,44,26.60
2006,07,23,12,45,26.60
2006,07,23,12,46,26.60
2006,07,23,12,47,26.60
2006,07,23,12,48,26.70
2006,07,23,12,49,26.70
2006,07,23,12,50,26.80
2006,07,23,12,51,26.80
2006,07,23,12,52,26.80
2006,07,23,12,53,26.80
2006,07,23,12,54,26.80
2006,07,23,12,55,26.80
2006,07,23,12,56,26.80
2006,07,23,12,57,26.80
2006,07,23,12,58,26.80
2006,07,23,12,59,26.70
2006,07,23,13,00,26.70
2006,07,23,13,01,26.80
2006,07,23,13,02,26.90
2006,07,23,13,03,27.00
2006,07,23,13,04,27.10
2006,07,23,13,05,27.10
2006,07,23,13,06,27.20
2006,07,23,13,07,27.20
2006,07,23,13,08,27.20
2006,07,23,13,09,27.10
2006,07,23,13,10,27.10
2006,07,23,13,11,27.20
2006,07,23,13,12,27.20
2006,07,23,13,13,27.30
2006,07,23,13,14,27.30
2006,07,23,13,15,27.50
2006,07,23,13,16,27.60
2006,07,23,13,17,27.50
2006,07,23,13,18,27.50
2006,07,23,13,19,27.60
2006,07,23,13,20,27.60
2006,07,23,13,21,27.60
2006,07,23,13,22,27.60
2006,07,23,13,23,27.70
2006,07,23,13,24,27.70
2006,07,23,13,25,27.80
2006,07,23,13,26,27.90
2006,07,23,13,27,28.00
2006,07,23,13,28,28.00
2006,07,23,13,29,28.10
2006,07,23,13,30,28.10
2006,07,23,13,31,28.10
2006,07,23,13,32,28.10
2006,07,23,13,33,28.10
2006,07,23,13,34,28.00
2006,07,23,13,35,28.10
2006,07,23,13,36,28.10
2006,07,23,13,37,28.10
2006,07,23,13,38,28.10
2006,07,23,13,39,28.10
2006,07,23,13,40,28.00
2006,07,23,13,41,27.90
2006,07,23,13,42,27.90
2006,07,23,13,43,27.80
2006,07,23,13,44,27.80
2006,07,23,13,45,27.90
2006,07,23,13,46,28.00
2006,07,23,13,47,28.10
2006,07,23,13,48,28.20
2006,07,23,13,49,28.20
2006,07,23,13,50,28.10
2006,07,23,13,51,28.10
2006,07,23,13,52,28.10
2006,07,23,13,53,28.20
2006,07,23,13,54,28.30
2006,07,23,13,55,28.40
2006,07,23,13,56,28.40
2006,07,23,13,57,28.60
2006,07,23,13,58,28.70
2006,07,23,13,59,28.90
2006,07,23,14,00,29.00
2006,07,23,14,01,29.20
2006,07,23,14,02,29.30
2006,07,23,14,03,29.40
2006,07,23,14,04,29.40
2006,07,23,14,05,29.40
2006,07,23,14,06,29.50
2006,07,23,14,07,29.40
2006,07,23,14,08,29.40
2006,07,23,14,09,29.30
2006,07,23,14,10,29.10
2006,07,23,14,11,28.90
2006,07,23,14,12,28.80
2006,07,23,14,13,28.80
2006,07,23,14,14,28.90
2006,07,23,14,15,29.00
2006,07,23,14,16,29.20
2006,07,23,14,17,29.40
2006,07,23,14,18,29.70
2006,07,23,14,19,29.90
2006,07,23,14,20,30.00
2006,07,23,14,21,30.10
2006,07,23,14,22,30.20
2006,07,23,14,23,30.30
2006,07,23,14,24,30.30
2006,07,23,14,25,30.20
2006,07,23,14,26,30.00
2006,07,23,14,27,29.80
2006,07,23,14,28,29.60
2006,07,23,14,29,29.40
2006,07,23,14,30,29.30
2006,07,23,14,31,29.10
2006,07,23,14,32,29.00
2006,07,23,14,33,28.90
2006,07,23,14,34,28.80
2006,07,23,14,35,28.70
2006,07,23,14,36,28.70
2006,07,23,14,37,28.70
2006,07,23,14,38,28.70
2006,07,23,14,39,28.70
2006,07,23,14,40,28.70
2006,07,23,14,41,28.70
2006,07,23,14,42,28.70
2006,07,23,14,43,28.80
2006,07,23,14,44,28.90
2006,07,23,14,45,28.90
2006,07,23,14,46,29.00
2006,07,23,14,47,29.10
2006,07,23,14,48,29.20
2006,07,23,14,49,29.30
2006,07,23,14,50,29.40
2006,07,23,14,51,29.40
2006,07,23,14,52,29.40
2006,07,23,14,53,29.40
2006,07,23,14,54,29.40
2006,07,23,14,55,29.50
2006,07,23,14,56,29.40
2006,07,23,14,57,29.40
2006,07,23,14,58,29.20
2006,07,23,14,59,29.20
2006,07,23,15,00,29.20
2006,07,23,15,01,29.20
2006,07,23,15,02,29.30
2006,07,23,15,03,29.30
2006,07,23,15,04,29.20
2006,07,23,15,05,29.20
2006,07,23,15,06,29.30
2006,07,23,15,07,29.30
2006,07,23,15,08,29.40
2006,07,23,15,09,29.40
2006,07,23,15,10,29.40
2006,07,23,15,11,29.40
2006,07,23,15,12,29.40
2006,07,23,15,13,29.50
2006,07,23,15,14,29.50
2006,07,23,15,15,29.50
2006,07,23,15,16,29.60
2006,07,23,15,17,29.50
2006,07,23,15,18,29.50
2006,07,23,15,19,29.40
2006,07,23,15,20,29.40
2006,07,23,15,21,29.40
2006,07,23,15,22,29.40
2006,07,23,15,23,29.40
2006,07,23,15,24,29.50
2006,07,23,15,25,29.50
2006,07,23,15,26,29.50
2006,07,23,15,27,29.50
2006,07,23,15,28,29.60
2006,07,23,15,29,29.60
2006,07,23,15,30,29.70
2006,07,23,15,31,29.80
2006,07,23,15,32,29.90
2006,07,23,15,33,29.90
2006,07,23,15,34,29.90
2006,07,23,15,35,29.80
2006,07,23,15,36,29.90
2006,07,23,15,37,29.90
2006,07,23,15,38,29.90
2006,07,23,15,39,30.00
2006,07,23,15,40,29.90
2006,07,23,15,41,29.90
2006,07,23,15,42,29.80
2006,07,23,15,43,29.80
2006,07,23,15,44,29.70
2006,07,23,15,45,29.80
2006,07,23,15,46,29.80
2006,07,23,15,47,29.90
2006,07,23,15,48,29.90
2006,07,23,15,49,29.90
2006,07,23,15,50,29.90
2006,07,23,15,51,29.70
2006,07,23,15,52,29.60
2006,07,23,15,53,29.50
2006,07,23,15,54,29.40
2006,07,23,15,55,29.40
2006,07,23,15,56,29.30
2006,07,23,15,57,29.20
2006,07,23,15,58,29.20
2006,07,23,15,59,29.20
2006,07,23,16,00,29.30
2006,07,23,16,01,29.40
2006,07,23,16,02,29.50
2006,07,23,16,03,29.60
2006,07,23,16,04,29.70
2006,07,23,16,05,29.80
2006,07,23,16,06,29.90
2006,07,23,16,07,30.10
2006,07,23,16,08,30.20
2006,07,23,16,09,30.30
2006,07,23,16,10,30.30
2006,07,23,16,11,30.30
2006,07,23,16,12,30.20
2006,07,23,16,13,30.20
2006,07,23,16,14,30.20
2006,07,23,16,15,30.20
2006,07,23,16,16,30.20
2006,07,23,16,17,30.20
2006,07,23,16,18,30.20
2006,07,23,16,19,30.20
2006,07,23,16,20,30.30
2006,07,23,16,21,30.50
2006,07,23,16,22,30.60
2006,07,23,16,23,30.70
2006,07,23,16,24,30.60
2006,07,23,16,25,30.60
2006,07,23,16,26,30.40
2006,07,23,16,27,30.20
2006,07,23,16,28,30.20
2006,07,23,16,29,30.20
2006,07,23,16,30,30.20
2006,07,23,16,31,30.20
2006,07,23,16,32,30.20
2006,07,23,16,33,30.20
2006,07,23,16,34,30.20
2006,07,23,16,35,30.10
2006,07,23,16,36,29.90
2006,07,23,16,37,29.80
2006,07,23,16,38,29.80
2006,07,23,16,39,29.70
2006,07,23,16,40,29.70
2006,07,23,16,41,29.70
2006,07,23,16,42,29.70
2006,07,23,16,43,29.80
2006,07,23,16,44,29.80
2006,07,23,16,45,29.90
2006,07,23,16,46,29.80
2006,07,23,16,47,29.90
2006,07,23,16,48,29.90
2006,07,23,16,49,29.90
2006,07,23,16,50,29.70
2006,07,23,16,51,29.60
2006,07,23,16,52,29.50
2006,07,23,16,53,29.40
2006,07,23,16,54,29.30
2006,07,23,16,55,29.30
2006,07,23,16,56,29.30
2006,07,23,16,57,29.40
2006,07,23,16,58,29.50
2006,07,23,16,59,29.60
2006,07,23,17,00,29.70
2006,07,23,17,01,29.70
2006,07,23,17,02,29.80
2006,07,23,17,03,29.80
2006,07,23,17,04,29.80
2006,07,23,17,05,29.70
2006,07,23,17,06,29.60
2006,07,23,17,07,29.60
2006,07,23,17,08,29.60
2006,07,23,17,09,29.50
2006,07,23,17,10,29.40
2006,07,23,17,11,29.20
2006,07,23,17,12,29.10
2006,07,23,17,13,29.10
2006,07,23,17,14,28.90
2006,07,23,17,15,28.90
2006,07,23,17,16,28.90
2006,07,23,17,17,28.90
2006,07,23,17,18,28.90
2006,07,23,17,19,28.90